Regional Weather Roundup
Issued by NWS Goodland, KS

Home | Current Version | Previous Version | Graphics & Text | Print | Product List | Glossary Off
Versions: 1 2 3 4 5 6 7 8 9 10 11 12 13 14 15 16 17 18 19 20 21 22 23 24 25 26 27 28 29 30 31 32 33 34 35 36 37 38 39 40 41 42 43 44 45 46 47 48 49 50

770
ASUS43 KGLD 240408
RWRGLD

GOODLAND FORECAST AREA HOURLY WEATHER ROUNDUP
NATIONAL WEATHER SERVICE GOODLAND KS
900 PM MST MON JAN 23 2017

...OFFICIAL OBSERVATIONS...

CITY           SKY/WX    TMP DP  RH WIND       PRES   REMARKS
GOODLAND KS    CLEAR     29  26  89 SE3       29.49F
HILL CITY KS   CLEAR     37  33  85 E8        29.58S
IMPERIAL NEB   CLOUDY    33  28  81 E8        29.56S
MCCOOK NEB     CLEAR     37  31  78 E10       29.57F
AKRON CO       CLOUDY    32  25  75 E12       29.52S
BURLINGTON CO  CLEAR     32  27  81 N3        29.50F
LIMON CO       CLOUDY    38  24  57 W5        29.48F
$$

...UNOFFICIAL OBSERVATIONS...

CITY           SKY/WX    TMP DP  RH WIND       PRES   REMARKS
LENORA KS        N/A     34  32  92 E6          N/A
NORTON KS      CLEAR     36  28  75 E9        29.58
SHARON SPRINGS   N/A     37  28  71 CALM        N/A
TRIBUNE KS     CLEAR     36  30  80 SW10      29.52
TRENTON NEB      N/A     35  32  89 SE8         N/A
KIT CARSON CO    N/A     39  27  62 CALM        N/A
YUMA CO        FAIR      28  27  93 NE6       29.54R
$$




USA.gov is the U.S. government's official web portal to all federal, state and local government web resources and services.